Buffalo, NY

1:54 AM EST on November 20, 2019 (GMT -0500)
Buffalo Niagara International

Weather History for KBUF - September, 2019

Change the Weather History Date:

Sunday, September 22, 2019

  Actual Average Record
Temperature  
Mean Temperature 76 °F 60 °F  
Max Temperature 85 °F 69 °F 89 °F (1965)
Min Temperature 67 °F 51 °F 37 °F (1963)
Degree Days  
Heating Degree Days 0 6  
Month to date heating degree days 21 75  
Since 1 July heating degree days 24 102  
Cooling Degree Days 11 1  
Month to date cooling degree days 46 47  
Year to date cooling degree days 591 534  
Growing Degree Days 25 (Base 50)    
Moisture  
Dew Point 62 °F    
Average Humidity 66    
Maximum Humidity 87    
Minimum Humidity 44    
Precipitation  
Precipitation T in 0.14 in 1.55 in (1885)
Month to date precipitation 4.52 2.77  
Year to date precipitation 32.89 27.93  
Snow  
Snow 0.00 in 0.00 in 0.00 in ()
Month to date snowfall 0.0 0.0  
Since 1 July snowfall 0.0 0.0  
Since 1 September snowfall 0.0 0.0  
Snow Depth 0.00 in    
Sea Level Pressure  
Sea Level Pressure 30.00 in    
Wind  
Wind Speed 11 mph (SSW)    
Max Wind Speed 25 mph    
Max Gust Speed 34 mph    
Visibility 10 miles    
Events      
T = Trace of Precipitation, MM = Missing Value Source: NWS Daily Summary

Daily Weather History Graph

Daily Weather History Graph

Search for Another Location

Airport or City:

Astronomy

Sep. 22, 2019 Rise Set
Actual Time 7:01 AM EDT 7:12 PM EDT
Civil Twilight 6:33 AM EDT 7:40 PM EDT
Nautical Twilight 6:00 AM EDT 8:14 PM EDT
Astronomical Twilight 5:26 AM EDT 8:47 PM EDT
Moon No Moon Rise 3:15 PM EDT (9/22)
Length of Visible Light 13h 07m
Length of Day
12h 10m
Last Quarter, 44% of the Moon is Illuminated
Sep 22
Last Quarter
Sep 28
New
Oct 5
First Quarter
Oct 13
Full
Oct 21
Last Quarter

Hourly Weather History & Observations

Time (EDT) Temp. Heat Index Dew Point Humidity Pressure Visibility Wind Dir Wind Speed Gust Speed Precip Events Conditions
1:54 AM 66.9 °F - 62.1 °F 84% 30.11 in 10.0 mi South 4.6 mph - N/A   Partly Cloudy
2:54 AM 68.0 °F - 63.0 °F 84% 30.09 in 10.0 mi SSE 4.6 mph - N/A   Partly Cloudy
3:54 AM 66.9 °F - 62.1 °F 84% 30.08 in 10.0 mi SSE 4.6 mph - N/A   Scattered Clouds
4:54 AM 66.9 °F - 63.0 °F 87% 30.07 in 10.0 mi South 5.8 mph - N/A   Mostly Cloudy
5:54 AM 68.0 °F - 63.0 °F 84% 30.07 in 10.0 mi South 8.1 mph - N/A   Mostly Cloudy
6:54 AM 71.1 °F - 64.0 °F 78% 30.08 in 10.0 mi South 4.6 mph - N/A   Mostly Cloudy
7:54 AM 70.0 °F - 64.9 °F 84% 30.08 in 10.0 mi SSW 5.8 mph - N/A   Mostly Cloudy
8:54 AM 73.0 °F - 64.9 °F 76% 30.07 in 10.0 mi SSW 8.1 mph - 0.00 in   Mostly Cloudy
9:54 AM 77.0 °F - 64.9 °F 66% 30.06 in 10.0 mi SW 10.4 mph - N/A   Mostly Cloudy
10:54 AM 81.0 °F 82.5 °F 64.0 °F 56% 30.05 in 10.0 mi WSW 12.7 mph - N/A   Mostly Cloudy
11:54 AM 82.9 °F 84.0 °F 63.0 °F 51% 30.03 in 10.0 mi WSW 13.8 mph 23.0 mph N/A   Scattered Clouds
12:54 PM 82.9 °F 83.7 °F 62.1 °F 49% 30.01 in 10.0 mi SW 23.0 mph 32.2 mph N/A   Mostly Cloudy
1:54 PM 82.9 °F 84.0 °F 63.0 °F 51% 29.99 in 10.0 mi WSW 17.3 mph 26.5 mph N/A   Scattered Clouds
2:54 PM 84.0 °F 84.0 °F 60.1 °F 44% 29.97 in 10.0 mi SW 23.0 mph 31.1 mph N/A   Scattered Clouds
3:54 PM 84.0 °F 84.4 °F 61.0 °F 46% 29.95 in 10.0 mi WSW 16.1 mph 28.8 mph N/A   Scattered Clouds
4:54 PM 82.9 °F 84.4 °F 64.0 °F 53% 29.93 in 10.0 mi WSW 15.0 mph 24.2 mph N/A   Scattered Clouds
5:54 PM 81.0 °F 81.9 °F 62.1 °F 52% 29.93 in 10.0 mi WSW 11.5 mph - N/A   Scattered Clouds
6:54 PM 75.9 °F - 61.0 °F 60% 29.92 in 10.0 mi SSW 9.2 mph - N/A   Mostly Cloudy
7:54 PM 75.9 °F - 59.0 °F 56% 29.92 in 10.0 mi SW 9.2 mph - N/A   Mostly Cloudy
8:54 PM 73.0 °F - 57.9 °F 59% 29.91 in 10.0 mi SSW 5.8 mph - N/A   Scattered Clouds
9:54 PM 71.1 °F - 59.0 °F 66% 29.90 in 10.0 mi SSW 8.1 mph - N/A   Scattered Clouds
10:54 PM 71.1 °F - 59.0 °F 66% 29.88 in 10.0 mi SSW 6.9 mph - N/A   Scattered Clouds
11:54 PM 73.0 °F - 63.0 °F 71% 29.86 in 10.0 mi South 8.1 mph - N/A   Mostly Cloudy